Location: Altenst�hlen
(53.5567°N, 8.9425°E)
Time: 20:27:05
(UTC+00:00)

STARLINK-34 - Pass Details

Date: 23 October 2019
Orbit: 548 x 551 km, 53.0° (Epoch: 17 November)

Event Time Altitude Azimuth Distance (km) Brightness Sun altitude
Rises 17:28:15 0° 274° (W) 2,720 9.2 -12.1°
Reaches altitude 10° 17:30:29 10° 273° (W) 1,827 7.8 -12.5°
Maximum altitude 17:34:38 82° 187° (S) 562 3.6 -13.1°
Enters shadow 17:37:18 22° 101° (ESE) 1,246 4.8 -13.5°
